Weather History for Marfa, TX

Change the Weather History Date:

Tuesday, March 19, 2013

  Actual Average Record
Temperature  
Mean Temperature 57 °F -  
Max Temperature 77 °F 66 °F 82 °F (2011)
Min Temperature 37 °F 35 °F 21 °F (2008)
Degree Days  
Heating Degree Days 8    
Growing Degree Days 7 (Base 50)    
Moisture  
Dew Point 15 °F    
Average Humidity 22    
Maximum Humidity 39    
Minimum Humidity 10    
Precipitation  
Precipitation 0.00 in - - ()
Sea Level Pressure  
Sea Level Pressure 30.08 in    
Wind  
Wind Speed 8 mph (WNW)    
Max Wind Speed 21 mph    
Max Gust Speed 28 mph    
Visibility 10 miles    
Events      
Averages and records for this station are not official NWS values.
T = Trace of Precipitation, MM = Missing Value Source: NWS Daily Summary

Daily Weather History Graph

Daily Weather History Graph

Search for Another Location

Airport:

Trip Planner

Search our weather history database for the weather conditions in past years. The results will help you decide how hot, cold, wet, or windy it might be!

Date:

Astronomy

Mar. 19, 2013 Rise Set
Actual Time 8:00 AM CDT 8:07 PM CDT
Civil Twilight 7:36 AM CDT 8:31 PM CDT
Nautical Twilight 7:08 AM CDT 8:58 PM CDT
Astronomical Twilight 6:40 AM CDT 9:27 PM CDT
Moon 1:15 PM CDT (3/19) 2:33 AM CDT (3/19)
Length of Visible Light 12h 54m
Length of Day
12h 06m
Waxing Crescent, 50% of the Moon is Illuminated
Mar 19
Waxing Crescent
Mar 19
First Quarter
Mar 27
Full
Apr 2
Last Quarter
Apr 10
New

Hourly Weather History & Observations

Time (CDT) Temp. Windchill Dew Point Humidity Pressure Visibility Wind Dir Wind Speed Gust Speed Precip Events Conditions
12:15 AM 44.6 °F 39.2 °F 14.0 °F 29% 30.10 in 10.0 mi WSW 10.4 mph - N/A   Clear
12:35 AM 44.6 °F - 12.2 °F 27% 30.10 in 10.0 mi Calm Calm - N/A   Clear
12:55 AM 48.2 °F - 15.8 °F 27% 30.10 in 10.0 mi ENE 4.6 mph - N/A   Clear
1:15 AM 44.6 °F 42.2 °F 12.2 °F 27% 30.10 in 10.0 mi East 4.6 mph - N/A   Clear
1:55 AM 39.2 °F - 10.4 °F 31% 30.11 in 10.0 mi Calm Calm - N/A   Clear
2:15 AM 39.2 °F - 12.2 °F 33% 30.10 in 10.0 mi Calm Calm - N/A   Clear
2:55 AM 39.2 °F 32.5 °F 12.2 °F 33% 30.09 in 10.0 mi NNW 10.4 mph - N/A   Clear
3:15 AM 41.0 °F 35.8 °F 12.2 °F 31% 30.09 in 10.0 mi NW 8.1 mph - N/A   Clear
3:35 AM 39.2 °F 33.0 °F 12.2 °F 33% 30.09 in 10.0 mi NNW 9.2 mph - N/A   Clear
3:55 AM 41.0 °F 36.4 °F 12.2 °F 31% 30.09 in 10.0 mi NNW 6.9 mph - N/A   Clear
4:15 AM 39.2 °F 33.6 °F 12.2 °F 33% 30.07 in 10.0 mi NW 8.1 mph - N/A   Clear
4:35 AM 37.4 °F 32.1 °F 12.2 °F 36% 30.07 in 10.0 mi NNW 6.9 mph - N/A   Clear
4:55 AM 39.2 °F 33.0 °F 12.2 °F 33% 30.08 in 10.0 mi NW 9.2 mph - N/A   Clear
5:15 AM 41.0 °F 34.7 °F 14.0 °F 33% 30.07 in 10.0 mi NW 10.4 mph - N/A   Clear
5:35 AM 41.0 °F 38.0 °F 14.0 °F 33% 30.07 in 10.0 mi NW 4.6 mph - N/A   Clear
5:55 AM 39.2 °F 35.9 °F 12.2 °F 33% 30.07 in 10.0 mi NNW 4.6 mph - N/A   Clear
6:15 AM 37.4 °F 31.4 °F 12.2 °F 36% 30.07 in 10.0 mi NW 8.1 mph - N/A   Clear
6:35 AM 37.4 °F 31.4 °F 12.2 °F 36% 30.07 in 10.0 mi NNW 8.1 mph - N/A   Clear
6:55 AM 39.2 °F 33.6 °F 14.0 °F 36% 30.07 in 10.0 mi NNW 8.1 mph - N/A   Clear
7:15 AM 37.4 °F 32.1 °F 12.2 °F 36% 30.08 in 10.0 mi NNW 6.9 mph - N/A   Clear
7:35 AM 37.4 °F 31.4 °F 12.2 °F 36% 30.08 in 10.0 mi NNW 8.1 mph - N/A   Clear
7:55 AM 37.4 °F 31.4 °F 14.0 °F 38% 30.09 in 10.0 mi NW 8.1 mph - N/A   Clear
8:15 AM 39.2 °F 34.2 °F 15.8 °F 39% 30.10 in 10.0 mi NW 6.9 mph - N/A   Clear
8:35 AM 42.8 °F 38.0 °F 15.8 °F 34% 30.11 in 10.0 mi NNW 8.1 mph - N/A   Clear
8:55 AM 44.6 °F - 17.6 °F 34% 30.11 in 10.0 mi Calm Calm - N/A   Clear
9:15 AM 51.8 °F - 17.6 °F 26% 30.12 in 10.0 mi Calm Calm - N/A   Clear
9:35 AM 53.6 °F - 19.4 °F 26% 30.12 in 10.0 mi Calm Calm - N/A   Clear
9:55 AM 55.4 °F - 19.4 °F 25% 30.11 in 10.0 mi Calm Calm - N/A   Clear
10:15 AM 60.8 °F - 21.2 °F 22% 30.11 in 10.0 mi Calm Calm - N/A   Clear
10:35 AM 62.6 °F - 23.0 °F 22% 30.11 in 10.0 mi Calm Calm - N/A   Clear
10:55 AM 66.2 °F - 21.2 °F 18% 30.11 in 10.0 mi South 4.6 mph - N/A   Clear
11:15 AM 68.0 °F - 21.2 °F 17% 30.10 in 10.0 mi SSW 3.5 mph - N/A   Clear
11:35 AM 69.8 °F - 21.2 °F 16% 30.11 in 10.0 mi SW 5.8 mph - N/A   Clear
11:55 AM 69.8 °F - 21.2 °F 16% 30.10 in 10.0 mi West 10.4 mph - N/A   Clear
12:15 PM 71.6 °F - 19.4 °F 14% 30.10 in 10.0 mi WSW 5.8 mph - N/A   Clear
12:35 PM 71.6 °F - 19.4 °F 14% 30.10 in 10.0 mi West 11.5 mph 16.1 mph N/A   Clear
12:55 PM 71.6 °F - 19.4 °F 14% 30.09 in 10.0 mi WSW 11.5 mph - N/A   Clear
1:15 PM 71.6 °F - 19.4 °F 14% 30.09 in 10.0 mi West 11.5 mph 17.3 mph N/A   Clear
1:35 PM 71.6 °F - 19.4 °F 14% 30.08 in 10.0 mi SW 11.5 mph 16.1 mph N/A   Clear
1:55 PM 71.6 °F - 19.4 °F 14% 30.07 in 10.0 mi WSW 16.1 mph 20.7 mph N/A   Clear
2:15 PM 73.4 °F - 19.4 °F 13% 30.06 in 10.0 mi SW 10.4 mph 18.4 mph N/A   Clear
2:35 PM 75.2 °F - 19.4 °F 12% 30.05 in 10.0 mi West 11.5 mph 21.9 mph N/A   Clear
2:55 PM 75.2 °F - 19.4 °F 12% 30.04 in 10.0 mi West 16.1 mph 21.9 mph N/A   Clear
3:15 PM 77.0 °F - 19.4 °F 12% 30.03 in 10.0 mi West 16.1 mph 25.3 mph N/A   Clear
3:35 PM 75.2 °F - 17.6 °F 11% 30.03 in 10.0 mi West 12.7 mph 27.6 mph N/A   Clear
3:55 PM 73.4 °F - 15.8 °F 11% 30.03 in 10.0 mi West 17.3 mph 25.3 mph N/A   Clear
4:15 PM 75.2 °F - 17.6 °F 11% 30.02 in 10.0 mi West 19.6 mph 27.6 mph N/A   Clear
4:35 PM 73.4 °F - 15.8 °F 11% 30.01 in 10.0 mi West 11.5 mph - N/A   Clear
4:55 PM 73.4 °F - 15.8 °F 11% 30.02 in 10.0 mi West 13.8 mph 23.0 mph N/A   Clear
5:15 PM 73.4 °F - 15.8 °F 11% 30.02 in 10.0 mi WNW 8.1 mph 26.5 mph N/A   Clear
5:35 PM 73.4 °F - 15.8 °F 11% 30.02 in 10.0 mi West 20.7 mph 25.3 mph N/A   Clear
5:55 PM 73.4 °F - 15.8 °F 11% 30.02 in 10.0 mi West 16.1 mph 25.3 mph N/A   Clear
6:15 PM 73.4 °F - 15.8 °F 11% 30.03 in 10.0 mi West 19.6 mph 25.3 mph N/A   Clear
6:35 PM 73.4 °F - 15.8 °F 11% 30.03 in 10.0 mi West 13.8 mph 21.9 mph N/A   Clear
6:55 PM 73.4 °F - 15.8 °F 11% 30.03 in 10.0 mi WNW 16.1 mph 20.7 mph N/A   Clear
7:15 PM 71.6 °F - 14.0 °F 11% 30.03 in 10.0 mi WNW 13.8 mph - N/A   Clear
7:35 PM 71.6 °F - 12.2 °F 10% 30.03 in 10.0 mi WNW 13.8 mph 19.6 mph N/A   Clear
7:55 PM 69.8 °F - 12.2 °F 11% 30.04 in 10.0 mi NW 11.5 mph - N/A   Clear
8:35 PM 62.6 °F - 10.4 °F 13% 30.06 in 10.0 mi NW 9.2 mph - N/A   Clear
8:55 PM 59.0 °F - 10.4 °F 15% 30.07 in 10.0 mi WNW 8.1 mph - N/A   Clear
9:15 PM 55.4 °F - 10.4 °F 17% 30.09 in 10.0 mi WNW 9.2 mph - N/A   Clear
9:35 PM 51.8 °F - 10.4 °F 19% 30.09 in 10.0 mi NNW 8.1 mph - N/A   Clear
9:55 PM 51.8 °F - 10.4 °F 19% 30.10 in 10.0 mi North 8.1 mph - N/A   Clear
10:15 PM 51.8 °F - 12.2 °F 21% 30.11 in 10.0 mi North 9.2 mph - N/A   Clear
10:35 PM 50.0 °F - 14.0 °F 24% 30.12 in 10.0 mi North 9.2 mph - N/A   Clear
10:55 PM 48.2 °F - 12.2 °F 24% 30.12 in 10.0 mi NNW 9.2 mph - N/A   Clear
11:15 PM 48.2 °F - 12.2 °F 24% 30.13 in 10.0 mi North 9.2 mph - N/A   Clear
11:35 PM 48.2 °F - 12.2 °F 24% 30.14 in 10.0 mi North 10.4 mph - N/A   Clear
11:55 PM 48.2 °F - 12.2 °F 24% 30.14 in 10.0 mi North 15.0 mph - N/A   Clear